Location: Killam
(52.7910°N, 111.8608°W)
Time: 08:56:42
(UTC+00:00)

NOAA 15 - Pass Details

Date: 22 December 2025
Orbit: 794 x 809 km, 98.5° (Epoch: 25 January)

Event Time Altitude Azimuth Distance (km) Brightness Sun altitude
Rises 00:29:20 0° 130° (SE) 3,314 7.5 -10.4°
Reaches altitude 10° 00:31:54 10° 120° (ESE) 2,384 6.7 -10.8°
Maximum altitude 00:36:27 31° 60° (ENE) 1,390 5.3 -11.4°
Drops below altitude 10° 00:41:01 10° 0° (N) 2,388 6.8 -12.1°
Sets 00:43:34 0° 350° (N) 3,320 7.7 -12.4°
